Regional Weather Roundup
Issued by NWS

Home | Current Version | Previous Version | Graphics & Text | Print | Product List | Glossary On
Versions: 1 2 3 4 5 6 7 8 9 10 11 12 13 14 15 16 17 18 19 20 21 22 23 24 25 26 27
000
ASUS45 KBOU 211007
RWRCO

WEATHER ROUNDUP FOR COLORADO
NATIONAL WEATHER SERVICE DENVER/BOULDER CO
400 AM MDT FRI JUL 21 2017

NOTE: "FAIR" INDICATES FEW OR NO CLOUDS BELOW 12000 FEET WITH NO
SIGNIFICANT WEATHER AND/OR OBSTRUCTIONS TO VISIBILITY.

COZ001>005-013-030-031-211100-
...NORTHWEST COLORADO...

CITY           SKY/WX    TMP DP  RH WIND       PRES   REMARKS
CRAIG          CLOUDY    66  51  58 SE3       30.24F
HAYDEN         MOCLDY    63  45  51 SW5       30.27S
MEEKER         FAIR      61  55  81 CALM      30.25F
RABBIT EARS PA CLOUDY    50  43  76 NW7       30.54F
STEAMBOAT SPGS CLOUDY    58  49  73 E6        30.29S
WALDEN         MOCLDY    54  46  76 CALM      30.38R
$$

COZ006>008-011-211100-
...WEST CENTRAL VALLEYS...

CITY           SKY/WX    TMP DP  RH WIND       PRES   REMARKS
GRAND JUNCTION FAIR      71  55  56 CALM      30.11S
MONTROSE       FAIR      65  50  58 SE13      30.21F
EAGLE          FAIR      57  50  77 E5        30.29F
RIFLE          MOCLDY    64  56  75 N5        30.18S
DELTA          FAIR      70  53  54 N5        30.18R
NUCLA          FAIR      64  50  59 E10       30.26S
$$

COZ017>023-064>068-211100-
...SOUTHWEST COLORADO...

CITY           SKY/WX    TMP DP  RH WIND       PRES   REMARKS
DURANGO        FAIR      56  51  84 NE3       30.27S
CORTEZ         FAIR      58  57  97 NE7       30.21F
PAGOSA SPRINGS FAIR      53  51  92 CALM      30.35S
TELLURIDE      FAIR      52  48  86 SE3       30.47F
WOLF CREEK PAS FAIR      45  43  93 SW12      30.68F
$$

COZ009-010-012-014-032>034-037-058>063-211100-
...CENTRAL COLORADO...

CITY           SKY/WX    TMP DP  RH WIND       PRES   REMARKS
ASPEN          FAIR      56  50  80 S6        30.34F
BUENA VISTA    FAIR      57  47  69 CALM      30.35S
COPPER MTN     FAIR      54  37  54 NW7       30.65F
BERTHOUD PASS  FAIR      45  32  61 NW24      30.66S
COTTONWOOD PAS FAIR      61  41  48 W6        30.48S
GUNNISON       FAIR      52  49  89 CALM      30.37R
KREMMLING      FAIR      55  52  88 CALM      30.34S
LEADVILLE      FAIR      45  41  86 NE3       30.46F
MONARCH PASS   FAIR      48  41  76 W17       30.74S
SALIDA         FAIR      57  50  77 W7        30.40S
SUNLIGHT       MOCLDY    50  41  71 W3        30.58F
WILKERSON PASS FAIR      52  37  58 W6        30.61S
$$

COZ069>075-211100-
...SAN LUIS VALLEY/SANGRE DE CRISTO MOUNTAINS...

CITY           SKY/WX    TMP DP  RH WIND       PRES   REMARKS
ALAMOSA        MOCLDY    57  52  83 E6        30.32S
DEL NORTE      CLOUDY    59  46  61 W13       30.36S
LA VETA PASS   NOT AVBL
SAGUACHE         N/A    N/A N/A N/A MISG        N/A
$$

COZ035-036-038>040-211100-
...NORTHERN COLORADO FRONT RANGE...

CITY           SKY/WX    TMP DP  RH WIND       PRES   REMARKS
DENVER INTL AP MOCLDY    67  50  54 N8        30.10R
DMNS CITY PARK   N/A     71  48  44 N8        30.12R
AURORA         MOCLDY    67  53  60 W5        30.13R
FRONT RANGE AP FAIR      68  52  56 N9G23     30.12R
ERIE MUNI ARPT FAIR      64  51  63 S3        30.10R
BOULDER MUN AP FAIR      70  48  46 CALM      30.11R
CENTENNIAL     FAIR      68  50  52 SE6       30.13R
BROOMFIELD     FAIR      68  50  52 NE6       30.14R
FORT COLLINS   FAIR      70  54  56 NE10      30.07F
LONGMONT       FAIR      68  52  56 SW6       30.11R
$$

COZ041-046-047-076>085-087-088-211100-
...PIKES PEAK/PALMER DIVIDE AND SOUTHERN FOOTHILLS...

CITY           SKY/WX    TMP DP  RH WIND       PRES   REMARKS
COLO. SPRINGS  FAIR      68  53  58 N6        30.16S
A. F. ACADEMY  FAIR      60  50  69 N7        30.18S
SCHRIEVER AFB  FAIR      72  46  39 NW7       30.16S
CHEYENNE MTN   FAIR      73  45  37 NW10      30.16F
ELLICOTT       FAIR     N/A N/A N/A CALM      30.14S
FALCON           N/A     62  49  62 W15       30.22S
FORT CARSON    FAIR      65  51  60 N8        30.12S
LIMON          FAIR      61  56  83 NW6       30.08F
MONUMENT HILL  FAIR      63  45  51 SW10      30.24S
CANON CITY     CLEAR     70  54  56 W15       30.10S
WALSENBURG     FAIR      70  50  49 W15       30.16S
TRINIDAD       FAIR      69  47  45 W10       30.14F
$$

COZ042>045-048>051-090-091-211100-
...NORTHEAST COLORADO...

CITY           SKY/WX    TMP DP  RH WIND       PRES   REMARKS
GREELEY ARPT   FAIR      67  55  65 NE3       30.07F
AKRON          FAIR      69  53  56 NW13      30.04F
BURLINGTON     FAIR      64  58  80 SW10      29.98F
WRAY           NOT AVBL
YUMA           FAIR      68  50  52 W10       29.98S
STERLING       FAIR      68  59  73 CALM      29.99S
HOLYOKE        FAIR      73  66  78 W7        29.95S
FORT MORGAN    FAIR      69  53  56 N13       30.05S
$$

COZ086-089-092>099-211100-
...SOUTHEAST COLORADO...

CITY           SKY/WX    TMP DP  RH WIND       PRES   REMARKS
PUEBLO         FAIR      72  52  49 SW8       30.04S
LA JUNTA       FAIR      70  54  56 W10       29.99F
LAMAR          FAIR      67  54  63 SW7       29.94F
SPRINGFIELD      N/A     67  52  58 SW8       30.02S
$$




USA.gov is the U.S. government's official web portal to all federal, state and local government web resources and services.